Tracking 35334 objects as of 13-Sep-2026
HD Live streaming from Space Station
objects crossing your sky now

STARLINK-33590

Track STARLINK-33590 now!
10-day predictions
STARLINK-33590 is classified as:


NORAD ID: 64316
Int'l Code: 2025-123AB
Launch date: June 8, 2025
Source: United States (US)
Launch site: AIR FORCE WESTERN TEST RANGE (AFWTR)
Your satellite tracking list
Your tracking list is empty




NASA's NSSDC Master Catalog

Two Line Element Set (TLE):
1 64316U 25123AB  26255.92688483  .00005486  00000-0  19512-3 0  9995
2 64316  69.9995  80.8111 0003267 274.4860  85.5942 15.29582308 69705
Source of the keplerian elements: AFSPC